COSMOS 2539

Last updated on Sun Apr 12 2026 00:02:55 GMT+0000 (Coordinated Universal Time)

1 44457U 19048A 26100.74522497 .00000082 00000+0 00000+0 0 9993 2 44457 0.0241 112.4211 0000593 96.7889 270.0281 1.00271838 24555
UTC large
Height (km)
Speed (km/s)
/
Latitude / Longitude
Inclination (degrees)
Orbital Period (minutes)
Azimuth
Elevation
Range (km)
Doppler Factor

Next 0 passes for location: London (51.5072 / 0.1276)

Sorry there are no passes over London.
COSMOS 2539